Flag for Papua New Guinea Weather past 2 weeks in Lae, Papua New Guinea

Now
86 °F

Partly sunny.


Feels Like: 92 °F
Forecast: 75 / 90 °F
Wind: 18 mph from Northwest

Location: Moresby

Current Time: Mar 5, 2015 at 12:50:53 PM

Latest Report: Mar 5, 2015 at 12:00 PM


Visibility: N/A

Pressure: 29.77 "Hg

Humidity: 62%

Dew point: 72 °F

Location of LaeLocation

Historic Weather in Lae — Graph

°F

Lae temperature yesterday

Maximum temperature yesterday: 84 °F (at 12:00 PM)
Minimum temperature yesterday: 75 °F (at 12:00 AM)
Average temperature yesterday: 79 °F

Past Weeks' High & Low Weather Summary

 TemperatureHumidityPressure
High93 °F (Feb 20, 11:00 AM)100% (Feb 23, 7:00 AM)29.89 "Hg (Feb 23, 7:00 AM)
Low73 °F (Feb 27, 6:00 AM)52% (Feb 20, 12:00 PM)29.65 "Hg (Feb 18, 4:00 PM)
Average81 °F82%29.75 "Hg
* Reported Feb 18 11:00 AM — Mar 5 11:00 AM, Lae, Weather by CustomWeather, © 2015

Note: Actual official high and low records may vary slightly from our data, if they occured in-between our weather recording intervals... More about our weather records

Advertising

Lae weather history for previous 24 hours

 ConditionsComfort  
Time TempWeatherWind HumidityBarometerVisibility
11:00 AM
Thu, Mar 5
86 °FPartly sunny.17 mph66%29.77 "HgN/A
10:00 AM82 °FPartly sunny.17 mph70%29.77 "HgN/A
9:00 AM79 °FWarm.17 mph84%29.80 "HgN/A
8:00 AM77 °FMore clouds than sun.12 mph89%29.77 "HgN/A
7:00 AM77 °FBroken clouds.17 mph79%29.74 "HgN/A
6:00 AM77 °FPartly cloudy.17 mph83%29.71 "HgN/A
4:00 AM77 °FMostly cloudy.9 mph89%29.71 "HgN/A
3:00 AM77 °FMostly cloudy.6 mph89%29.71 "HgN/A
2:00 AM77 °FMostly cloudy.No wind94%29.71 "HgN/A
1:00 AM79 °FMostly cloudy.No wind89%29.74 "HgN/A
12:00 AM79 °FMostly cloudy.No wind89%29.77 "HgN/A
11:00 PM
Wed, Mar 4
79 °FMostly cloudy.No wind89%29.80 "HgN/A
10:00 PM79 °FPassing clouds.No wind89%29.77 "HgN/A
8:00 PM81 °FPartly cloudy.2 mph84%29.74 "HgN/A
7:00 PM81 °FPassing clouds.5 mph84%29.71 "HgN/A
3:00 PM84 °FBroken clouds.14 mph70%29.68 "HgN/A
2:00 PM84 °FBroken clouds.16 mph70%29.68 "HgN/A
1:00 PM84 °FBroken clouds.14 mph70%29.74 "HgN/A
12:00 PM84 °FBroken clouds.16 mph74%29.77 "HgN/A
Weather by CustomWeather, © 2015

See weather overviewHow to use our weather pages